Location: Ladrillo (historical)
(32.8195°N, 117.2231°W)
Time: 11:54:14
(UTC+00:00)

Cosmos 1190 Rocket - Pass Details

Date: 26 May 2022
Orbit: 756 x 780 km, 74.1° (Epoch: 01 July)

Event Time Altitude Azimuth Distance (km) Brightness Sun altitude
Rises 12:11:47 0° 334° (NNW) 3,256 7.3 -6.7°
Reaches altitude 10° 12:14:17 10° 327° (NNW) 2,328 6.5 -6.3°
Maximum altitude 12:19:12 40° 259° (W) 1,130 4.5 -5.4°
Drops below altitude 10° 12:24:07 10° 190° (S) 2,323 6.1 -4.5°
Sets 12:26:36 0° 183° (S) 3,247 6.9 -4.0°
